This is the latest recevied weather packets stored in our database for station/object ON7SD-5. If no packets are shown the sender has not sent any weather packets the latest 10 day(s).
| Time | Temp. | Humidity | Pressure | Rain* | Wind** | Luminosity | Snow |
|---|---|---|---|---|---|---|---|
| 1777717033 | 20.56° C | 72% | 1017.3 hPa | 0 mm | - | 346 W/m² | - |
| 1777716733 | 20.56° C | 72% | 1017.3 hPa | 0 mm | - | 675 W/m² | - |
| 1777716433 | 20.56° C | 74% | 1017.4 hPa | 0 mm | - | 346 W/m² | - |
| 1777716133 | 20.56° C | 73% | 1017.4 hPa | 0 mm | - | 512 W/m² | - |
| 1777715833 | 20.56° C | 73% | 1017.5 hPa | 0 mm | - | 388 W/m² | - |
| 1777715533 | 20° C | 75% | 1017.5 hPa | 0 mm | - | 659 W/m² | - |
| 1777715233 | 20° C | 76% | 1017.6 hPa | 0 mm | - | 327 W/m² | - |
| 1777714933 | 19.44° C | 76% | 1017.6 hPa | 0 mm | - | 540 W/m² | - |
| 1777714633 | 19.44° C | 76% | 1017.6 hPa | 0 mm | - | 642 W/m² | - |
| 1777714333 | 19.44° C | 76% | 1017.6 hPa | 0 mm | - | 376 W/m² | - |
| 1777714035 | 19.44° C | 78% | 1017.6 hPa | 0 mm | - | 318 W/m² | - |
| 1777713733 | 18.89° C | 78% | 1017.6 hPa | 0 mm | - | 325 W/m² | - |
| 1777713433 | 18.89° C | 79% | 1017.7 hPa | 0 mm | - | 496 W/m² | - |
| 1777713133 | 18.89° C | 80% | 1017.8 hPa | 0 mm | - | 418 W/m² | - |
| 1777712833 | 18.33° C | 80% | 1017.7 hPa | 0 mm | - | 427 W/m² | - |
| 1777712533 | 18.33° C | 81% | 1017.8 hPa | 0 mm | - | 427 W/m² | - |
| 1777712233 | 18.33° C | 81% | 1017.8 hPa | 0 mm | - | 388 W/m² | - |
| 1777711933 | 17.78° C | 82% | 1017.8 hPa | 0 mm | - | 388 W/m² | - |
| 1777711633 | 17.78° C | 82% | 1017.9 hPa | 0 mm | - | 315 W/m² | - |
| 1777711333 | 17.78° C | 81% | 1017.9 hPa | 0 mm | - | 185 W/m² | - |
| 1777711033 | 18.33° C | 82% | 1017.9 hPa | 0 mm | - | 141 W/m² | - |
| 1777710733 | 18.33° C | 81% | 1017.9 hPa | 0 mm | - | 174 W/m² | - |
| 1777710433 | 18.33° C | 81% | 1017.9 hPa | 0 mm | - | 241 W/m² | - |
| 1777710133 | 18.33° C | 83% | 1017.9 hPa | 0 mm | - | 461 W/m² | - |
| 1777709833 | 17.78° C | 83% | 1017.9 hPa | 0 mm | - | 308 W/m² | - |
* Rain latest hour (hover to see other rain measurements)
** Current wind speed in m/s (hover to see current wind gust speed)